Tracking 19638 objects as of 20-May-2019
HD Live streaming from Space Station
objects crossing your sky now

IRIDIUM 138

Track IRIDIUM 138 now!
10-day predictions
IRIDIUM 138 is classified as:


NORAD ID: 43071
Int'l Code: 2017-083B
Perigee: 783.4 km
Apogee: 786.2 km
Inclination: 86.4 °
Period: 100.4 minutes
Semi major axis: 7155 km
RCS: Unknown
Launch date: December 23, 2017
Source: United States (US)
Launch site: AIR FORCE WESTERN TEST RANGE (AFWTR)
aabbcc
Your satellite tracking list
Your tracking list is empty




NASA's NSSDC Master Catalog

Two Line Element Set (TLE):
1 43071U 17083B   19140.53237770  .00000015  00000-0 -17434-5 0  9994
2 43071  86.3927 322.0811 0001959  91.3105 268.8316 14.34217890 73678
Source of the keplerian elements: AFSPC